Wetterdaten: Freitag, 05.06.2015
Datum Zeit Temperatur Luftfeuchte Luftdruck Regen Wind Richtung Richtung Sonnenschein ET UV Solar Taupunkt Windchill Windben
05.06.2015 00:00 15,3 C 68 % 1023,0 hPa 0,0 l/m 0,0 km/h (0 Bft) NO 47 0 min 0,000 mm 0,0 UV-I 0 W/m 9,4 C 15,3 C 0,0 km/h (0 Bft)
05.06.2015 00:05 15,2 C 69 % 1023,0 hPa 0,0 l/m 0,0 km/h (0 Bft) NO 47 0 min 0,000 mm 0,0 UV-I 0 W/m 9,6 C 15,2 C 0,0 km/h (0 Bft)
05.06.2015 00:10 15,2 C 69 % 1023,0 hPa 0,0 l/m 0,2 km/h (0 Bft) NO 47 0 min 0,000 mm 0,0 UV-I 0 W/m 9,6 C 15,2 C 3,2 km/h (1 Bft)
05.06.2015 00:15 15,2 C 69 % 1023,1 hPa 0,0 l/m 0,0 km/h (0 Bft) NO 47 0 min 0,000 mm 0,0 UV-I 0 W/m 9,6 C 15,2 C 1,6 km/h (1 Bft)
05.06.2015 00:20 15,2 C 69 % 1023,1 hPa 0,0 l/m 0,0 km/h (0 Bft) NO 47 0 min 0,000 mm 0,0 UV-I 0 W/m 9,6 C 15,2 C 0,0 km/h (0 Bft)
05.06.2015 00:25 15,2 C 69 % 1023,1 hPa 0,0 l/m 0,0 km/h (0 Bft) NO 47 0 min 0,000 mm 0,0 UV-I 0 W/m 9,6 C 15,2 C 0,0 km/h (0 Bft)
05.06.2015 00:30 15,1 C 69 % 1023,0 hPa 0,0 l/m 0,0 km/h (0 Bft) NO 47 0 min 0,000 mm 0,0 UV-I 0 W/m 9,5 C 15,1 C 0,0 km/h (0 Bft)
05.06.2015 00:35 15,0 C 70 % 1022,9 hPa 0,0 l/m 0,0 km/h (0 Bft) NO 47 0 min 0,000 mm 0,0 UV-I 0 W/m 9,6 C 15,0 C 0,0 km/h (0 Bft)
05.06.2015 00:40 14,7 C 70 % 1023,0 hPa 0,0 l/m 0,0 km/h (0 Bft) NO 47 0 min 0,000 mm 0,0 UV-I 0 W/m 9,3 C 14,7 C 0,0 km/h (0 Bft)
05.06.2015 00:45 14,4 C 71 % 1023,0 hPa 0,0 l/m 0,0 km/h (0 Bft) NO 47 0 min 0,000 mm 0,0 UV-I 0 W/m 9,2 C 14,4 C 0,0 km/h (0 Bft)
05.06.2015 00:50 14,2 C 72 % 1023,0 hPa 0,0 l/m 0,0 km/h (0 Bft) NO 47 0 min 0,000 mm 0,0 UV-I 0 W/m 9,2 C 14,2 C 0,0 km/h (0 Bft)
05.06.2015 00:55 13,9 C 74 % 1022,9 hPa 0,0 l/m 0,0 km/h (0 Bft) NO 47 0 min 0,000 mm 0,0 UV-I 0 W/m 9,3 C 13,9 C 0,0 km/h (0 Bft)
05.06.2015 01:00 13,7 C 74 % 1022,9 hPa 0,0 l/m 0,0 km/h (0 Bft) NO 47 0 min 0,025 mm 0,0 UV-I 0 W/m 9,2 C 13,7 C 0,0 km/h (0 Bft)
05.06.2015 01:05 13,5 C 75 % 1022,9 hPa 0,0 l/m 0,0 km/h (0 Bft) NO 47 0 min 0,000 mm 0,0 UV-I 0 W/m 9,2 C 13,5 C 0,0 km/h (0 Bft)
05.06.2015 01:10 13,2 C 76 % 1022,9 hPa 0,0 l/m 0,0 km/h (0 Bft) NO 47 0 min 0,000 mm 0,0 UV-I 0 W/m 9,1 C 13,2 C 0,0 km/h (0 Bft)
05.06.2015 01:15 13,1 C 77 % 1022,9 hPa 0,0 l/m 0,0 km/h (0 Bft) NO 47 0 min 0,000 mm 0,0 UV-I 0 W/m 9,2 C 13,1 C 0,0 km/h (0 Bft)
05.06.2015 01:20 12,9 C 77 % 1022,9 hPa 0,0 l/m 0,0 km/h (0 Bft) NO 47 0 min 0,000 mm 0,0 UV-I 0 W/m 9,0 C 12,9 C 0,0 km/h (0 Bft)
05.06.2015 01:25 12,8 C 78 % 1022,8 hPa 0,0 l/m 0,0 km/h (0 Bft) NO 47 0 min 0,000 mm 0,0 UV-I 0 W/m 9,1 C 12,8 C 0,0 km/h (0 Bft)
05.06.2015 01:30 12,7 C 78 % 1022,8 hPa 0,0 l/m 0,0 km/h (0 Bft) NO 47 0 min 0,000 mm 0,0 UV-I 0 W/m 9,0 C 12,7 C 0,0 km/h (0 Bft)
05.06.2015 01:35 12,6 C 79 % 1022,8 hPa 0,0 l/m 0,0 km/h (0 Bft) NO 47 0 min 0,000 mm 0,0 UV-I 0 W/m 9,1 C 12,6 C 0,0 km/h (0 Bft)
05.06.2015 01:40 12,4 C 79 % 1022,8 hPa 0,0 l/m 0,0 km/h (0 Bft) NO 47 0 min 0,000 mm 0,0 UV-I 0 W/m 8,9 C 12,4 C 0,0 km/h (0 Bft)
05.06.2015 01:45 12,2 C 80 % 1022,8 hPa 0,0 l/m 0,0 km/h (0 Bft) NO 47 0 min 0,000 mm 0,0 UV-I 0 W/m 8,9 C 12,2 C 0,0 km/h (0 Bft)
05.06.2015 01:50 12,2 C 80 % 1022,8 hPa 0,0 l/m 0,0 km/h (0 Bft) NO 47 0 min 0,000 mm 0,0 UV-I 0 W/m 8,9 C 12,2 C 0,0 km/h (0 Bft)
05.06.2015 01:55 12,1 C 80 % 1022,8 hPa 0,0 l/m 0,0 km/h (0 Bft) NO 47 0 min 0,000 mm 0,0 UV-I 0 W/m 8,8 C 12,1 C 0,0 km/h (0 Bft)
05.06.2015 02:00 11,9 C 81 % 1022,8 hPa 0,0 l/m 0,0 km/h (0 Bft) NO 47 0 min 0,026 mm 0,0 UV-I 0 W/m 8,7 C 11,9 C 0,0 km/h (0 Bft)
05.06.2015 02:05 11,9 C 81 % 1022,8 hPa 0,0 l/m 0,0 km/h (0 Bft) NO 47 0 min 0,000 mm 0,0 UV-I 0 W/m 8,7 C 11,9 C 0,0 km/h (0 Bft)
05.06.2015 02:10 11,8 C 80 % 1022,8 hPa 0,0 l/m 0,0 km/h (0 Bft) NO 47 0 min 0,000 mm 0,0 UV-I 0 W/m 8,5 C 11,8 C 0,0 km/h (0 Bft)
05.06.2015 02:15 11,8 C 80 % 1022,8 hPa 0,0 l/m 0,0 km/h (0 Bft) NO 47 0 min 0,000 mm 0,0 UV-I 0 W/m 8,5 C 11,8 C 0,0 km/h (0 Bft)
05.06.2015 02:20 11,7 C 81 % 1022,8 hPa 0,0 l/m 0,0 km/h (0 Bft) NO 47 0 min 0,000 mm 0,0 UV-I 0 W/m 8,5 C 11,7 C 0,0 km/h (0 Bft)
05.06.2015 02:25 11,6 C 81 % 1022,7 hPa 0,0 l/m 0,0 km/h (0 Bft) NO 47 0 min 0,000 mm 0,0 UV-I 0 W/m 8,5 C 11,6 C 0,0 km/h (0 Bft)
05.06.2015 02:30 11,5 C 82 % 1022,8 hPa 0,0 l/m 0,0 km/h (0 Bft) NO 47 0 min 0,000 mm 0,0 UV-I 0 W/m 8,5 C 11,5 C 0,0 km/h (0 Bft)
05.06.2015 02:35 11,3 C 82 % 1022,8 hPa 0,0 l/m 0,0 km/h (0 Bft) NO 47 0 min 0,000 mm 0,0 UV-I 0 W/m 8,3 C 11,3 C 0,0 km/h (0 Bft)
05.06.2015 02:40 11,3 C 82 % 1022,7 hPa 0,0 l/m 0,0 km/h (0 Bft) NO 47 0 min 0,000 mm 0,0 UV-I 0 W/m 8,3 C 11,3 C 0,0 km/h (0 Bft)
05.06.2015 02:45 11,2 C 82 % 1022,7 hPa 0,0 l/m 0,0 km/h (0 Bft) NO 47 0 min 0,000 mm 0,0 UV-I 0 W/m 8,2 C 11,2 C 0,0 km/h (0 Bft)
05.06.2015 02:50 11,2 C 82 % 1022,6 hPa 0,0 l/m 0,0 km/h (0 Bft) NO 47 0 min 0,000 mm 0,0 UV-I 0 W/m 8,2 C 11,2 C 0,0 km/h (0 Bft)
05.06.2015 02:55 11,1 C 82 % 1022,6 hPa 0,0 l/m 0,0 km/h (0 Bft) NO 47 0 min 0,000 mm 0,0 UV-I 0 W/m 8,1 C 11,1 C 0,0 km/h (0 Bft)
05.06.2015 03:00 11,0 C 82 % 1022,6 hPa 0,0 l/m 0,0 km/h (0 Bft) NO 47 0 min 0,025 mm 0,0 UV-I 0 W/m 8,0 C 11,0 C 0,0 km/h (0 Bft)
05.06.2015 03:05 10,9 C 83 % 1022,5 hPa 0,0 l/m 0,0 km/h (0 Bft) NO 47 0 min 0,000 mm 0,0 UV-I 0 W/m 8,1 C 10,9 C 0,0 km/h (0 Bft)
05.06.2015 03:10 10,8 C 83 % 1022,5 hPa 0,0 l/m 0,0 km/h (0 Bft) NO 47 0 min 0,000 mm 0,0 UV-I 0 W/m 8,0 C 10,8 C 0,0 km/h (0 Bft)
05.06.2015 03:15 10,7 C 83 % 1022,5 hPa 0,0 l/m 0,0 km/h (0 Bft) NO 47 0 min 0,000 mm 0,0 UV-I 0 W/m 7,9 C 10,7 C 0,0 km/h (0 Bft)
05.06.2015 03:20 10,6 C 84 % 1022,5 hPa 0,0 l/m 0,0 km/h (0 Bft) NO 47 0 min 0,000 mm 0,0 UV-I 0 W/m 8,0 C 10,6 C 0,0 km/h (0 Bft)
05.06.2015 03:25 10,4 C 84 % 1022,5 hPa 0,0 l/m 0,0 km/h (0 Bft) NO 47 0 min 0,000 mm 0,0 UV-I 0 W/m 7,8 C 10,4 C 0,0 km/h (0 Bft)
05.06.2015 03:30 10,3 C 84 % 1022,5 hPa 0,0 l/m 0,0 km/h (0 Bft) NO 47 0 min 0,000 mm 0,0 UV-I 0 W/m 7,7 C 10,3 C 0,0 km/h (0 Bft)
05.06.2015 03:35 10,3 C 85 % 1022,5 hPa 0,0 l/m 0,0 km/h (0 Bft) NO 47 0 min 0,000 mm 0,0 UV-I 0 W/m 7,9 C 10,3 C 0,0 km/h (0 Bft)
05.06.2015 03:40 10,2 C 85 % 1022,4 hPa 0,0 l/m 0,0 km/h (0 Bft) NO 47 0 min 0,000 mm 0,0 UV-I 0 W/m 7,8 C 10,2 C 0,0 km/h (0 Bft)
05.06.2015 03:45 10,1 C 85 % 1022,4 hPa 0,0 l/m 0,0 km/h (0 Bft) NO 47 0 min 0,000 mm 0,0 UV-I 0 W/m 7,7 C 10,1 C 0,0 km/h (0 Bft)
05.06.2015 03:50 10,1 C 85 % 1022,4 hPa 0,0 l/m 0,0 km/h (0 Bft) NO 47 0 min 0,000 mm 0,0 UV-I 0 W/m 7,7 C 10,1 C 0,0 km/h (0 Bft)
05.06.2015 03:55 9,9 C 85 % 1022,4 hPa 0,0 l/m 0,0 km/h (0 Bft) NO 47 0 min 0,000 mm 0,0 UV-I 0 W/m 7,5 C 9,9 C 0,0 km/h (0 Bft)
05.06.2015 04:00 9,8 C 85 % 1022,3 hPa 0,0 l/m 0,0 km/h (0 Bft) NO 47 0 min 0,000 mm 0,0 UV-I 0 W/m 7,4 C 9,8 C 0,0 km/h (0 Bft)
05.06.2015 04:05 9,8 C 86 % 1022,3 hPa 0,0 l/m 0,0 km/h (0 Bft) NO 47 0 min 0,000 mm 0,0 UV-I 0 W/m 7,6 C 9,8 C 0,0 km/h (0 Bft)
05.06.2015 04:10 9,7 C 86 % 1022,1 hPa 0,0 l/m 0,0 km/h (0 Bft) NO 47 0 min 0,000 mm 0,0 UV-I 0 W/m 7,5 C 9,7 C 0,0 km/h (0 Bft)
05.06.2015 04:15 9,6 C 86 % 1022,2 hPa 0,0 l/m 0,0 km/h (0 Bft) NO 47 0 min 0,000 mm 0,0 UV-I 0 W/m 7,4 C 9,6 C 0,0 km/h (0 Bft)
05.06.2015 04:20 9,6 C 86 % 1022,1 hPa 0,0 l/m 0,0 km/h (0 Bft) NO 47 0 min 0,000 mm 0,0 UV-I 0 W/m 7,4 C 9,6 C 0,0 km/h (0 Bft)
05.06.2015 04:25 9,5 C 86 % 1022,0 hPa 0,0 l/m 0,0 km/h (0 Bft) NO 47 0 min 0,000 mm 0,0 UV-I 0 W/m 7,3 C 9,5 C 0,0 km/h (0 Bft)
05.06.2015 04:30 9,4 C 86 % 1022,1 hPa 0,0 l/m 0,0 km/h (0 Bft) NO 47 0 min 0,000 mm 0,0 UV-I 0 W/m 7,2 C 9,4 C 0,0 km/h (0 Bft)
05.06.2015 04:35 9,3 C 87 % 1022,1 hPa 0,0 l/m 0,0 km/h (0 Bft) NO 47 0 min 0,000 mm 0,0 UV-I 0 W/m 7,2 C 9,3 C 0,0 km/h (0 Bft)
05.06.2015 04:40 9,3 C 86 % 1022,1 hPa 0,0 l/m 0,0 km/h (0 Bft) NO 47 0 min 0,000 mm 0,0 UV-I 0 W/m 7,1 C 9,3 C 0,0 km/h (0 Bft)
05.06.2015 04:45 9,2 C 87 % 1022,1 hPa 0,0 l/m 0,0 km/h (0 Bft) NO 47 0 min 0,000 mm 0,0 UV-I 0 W/m 7,2 C 9,2 C 0,0 km/h (0 Bft)
05.06.2015 04:50 9,2 C 87 % 1022,1 hPa 0,0 l/m 0,0 km/h (0 Bft) NO 47 0 min 0,000 mm 0,0 UV-I 0 W/m 7,2 C 9,2 C 0,0 km/h (0 Bft)
05.06.2015 04:55 9,1 C 87 % 1022,1 hPa 0,0 l/m 0,0 km/h (0 Bft) NO 47 0 min 0,000 mm 0,0 UV-I 0 W/m 7,1 C 9,1 C 0,0 km/h (0 Bft)
05.06.2015 05:00 9,1 C 87 % 1022,0 hPa 0,0 l/m 0,0 km/h (0 Bft) NO 47 0 min 0,000 mm 0,0 UV-I 0 W/m 7,1 C 9,1 C 0,0 km/h (0 Bft)
05.06.2015 05:05 9,0 C 87 % 1022,0 hPa 0,0 l/m 0,0 km/h (0 Bft) NO 47 0 min 0,000 mm 0,0 UV-I 0 W/m 7,0 C 9,0 C 0,0 km/h (0 Bft)
05.06.2015 05:10 8,9 C 88 % 1021,9 hPa 0,0 l/m 0,0 km/h (0 Bft) NO 47 0 min 0,000 mm 0,0 UV-I 0 W/m 7,0 C 8,9 C 0,0 km/h (0 Bft)
05.06.2015 05:15 8,9 C 88 % 1021,9 hPa 0,0 l/m 0,0 km/h (0 Bft) NO 47 0 min 0,000 mm 0,0 UV-I 0 W/m 7,0 C 8,9 C 0,0 km/h (0 Bft)
05.06.2015 05:20 8,8 C 88 % 1021,8 hPa 0,0 l/m 0,0 km/h (0 Bft) NO 47 0 min 0,000 mm 0,0 UV-I 1 W/m 6,9 C 8,8 C 0,0 km/h (0 Bft)
05.06.2015 05:25 8,7 C 88 % 1021,9 hPa 0,0 l/m 0,0 km/h (0 Bft) NO 47 0 min 0,000 mm 0,0 UV-I 5 W/m 6,8 C 8,7 C 0,0 km/h (0 Bft)
05.06.2015 05:30 8,7 C 88 % 1021,9 hPa 0,0 l/m 0,0 km/h (0 Bft) NO 47 0 min 0,000 mm 0,0 UV-I 7 W/m 6,8 C 8,7 C 0,0 km/h (0 Bft)
05.06.2015 05:35 8,6 C 88 % 1021,9 hPa 0,0 l/m 0,0 km/h (0 Bft) NO 47 0 min 0,000 mm 0,0 UV-I 9 W/m 6,7 C 8,6 C 0,0 km/h (0 Bft)
05.06.2015 05:40 8,6 C 88 % 1021,9 hPa 0,0 l/m 0,0 km/h (0 Bft) NO 47 0 min 0,000 mm 0,0 UV-I 11 W/m 6,7 C 8,6 C 0,0 km/h (0 Bft)
05.06.2015 05:45 8,6 C 88 % 1022,0 hPa 0,0 l/m 0,0 km/h (0 Bft) NO 47 0 min 0,000 mm 0,0 UV-I 13 W/m 6,7 C 8,6 C 0,0 km/h (0 Bft)
05.06.2015 05:50 8,6 C 89 % 1021,9 hPa 0,0 l/m 0,0 km/h (0 Bft) NO 47 0 min 0,000 mm 0,0 UV-I 15 W/m 6,9 C 8,6 C 0,0 km/h (0 Bft)
05.06.2015 05:55 8,6 C 88 % 1021,9 hPa 0,0 l/m 0,0 km/h (0 Bft) NO 47 0 min 0,000 mm 0,0 UV-I 17 W/m 6,7 C 8,6 C 0,0 km/h (0 Bft)
05.06.2015 06:00 8,6 C 88 % 1022,0 hPa 0,0 l/m 0,0 km/h (0 Bft) NO 47 0 min 0,000 mm 0,0 UV-I 18 W/m 6,7 C 8,6 C 0,0 km/h (0 Bft)
05.06.2015 06:05 8,6 C 89 % 1022,0 hPa 0,0 l/m 0,0 km/h (0 Bft) NO 47 0 min 0,000 mm 0,0 UV-I 20 W/m 6,9 C 8,6 C 0,0 km/h (0 Bft)
05.06.2015 06:10 8,6 C 89 % 1022,0 hPa 0,0 l/m 0,0 km/h (0 Bft) NO 47 0 min 0,000 mm 0,0 UV-I 21 W/m 6,9 C 8,6 C 0,0 km/h (0 Bft)
05.06.2015 06:15 8,7 C 89 % 1022,0 hPa 0,0 l/m 0,0 km/h (0 Bft) NO 47 0 min 0,000 mm 0,0 UV-I 22 W/m 7,0 C 8,7 C 0,0 km/h (0 Bft)
05.06.2015 06:20 8,7 C 89 % 1022,0 hPa 0,0 l/m 0,0 km/h (0 Bft) NO 47 0 min 0,000 mm 0,0 UV-I 23 W/m 7,0 C 8,7 C 0,0 km/h (0 Bft)
05.06.2015 06:25 8,8 C 89 % 1022,0 hPa 0,0 l/m 0,0 km/h (0 Bft) NO 47 0 min 0,000 mm 0,0 UV-I 27 W/m 7,1 C 8,8 C 0,0 km/h (0 Bft)
05.06.2015 06:30 8,8 C 90 % 1021,9 hPa 0,0 l/m 0,0 km/h (0 Bft) NO 47 0 min 0,000 mm 0,0 UV-I 62 W/m 7,3 C 8,8 C 0,0 km/h (0 Bft)
05.06.2015 06:35 9,1 C 90 % 1021,8 hPa 0,0 l/m 0,0 km/h (0 Bft) NO 47 0 min 0,000 mm 0,0 UV-I 90 W/m 7,5 C 9,1 C 0,0 km/h (0 Bft)
05.06.2015 06:40 9,4 C 90 % 1021,9 hPa 0,0 l/m 0,0 km/h (0 Bft) NO 47 5 min 0,000 mm 0,0 UV-I 101 W/m 7,8 C 9,4 C 0,0 km/h (0 Bft)
05.06.2015 06:45 9,6 C 89 % 1021,9 hPa 0,0 l/m 0,0 km/h (0 Bft) NO 47 5 min 0,000 mm 0,0 UV-I 113 W/m 7,9 C 9,6 C 0,0 km/h (0 Bft)
05.06.2015 06:50 9,9 C 89 % 1022,0 hPa 0,0 l/m 0,0 km/h (0 Bft) NO 47 5 min 0,000 mm 0,0 UV-I 117 W/m 8,2 C 9,9 C 0,0 km/h (0 Bft)
05.06.2015 06:55 10,2 C 88 % 1022,0 hPa 0,0 l/m 0,0 km/h (0 Bft) NO 47 5 min 0,000 mm 0,0 UV-I 135 W/m 8,3 C 10,2 C 0,0 km/h (0 Bft)
05.06.2015 07:00 10,5 C 88 % 1021,9 hPa 0,0 l/m 0,0 km/h (0 Bft) NO 47 5 min 0,026 mm 0,0 UV-I 144 W/m 8,6 C 10,5 C 0,0 km/h (0 Bft)
05.06.2015 07:05 10,8 C 87 % 1021,8 hPa 0,0 l/m 0,0 km/h (0 Bft) NO 47 5 min 0,000 mm 0,0 UV-I 153 W/m 8,7 C 10,8 C 0,0 km/h (0 Bft)
05.06.2015 07:10 10,9 C 86 % 1021,7 hPa 0,0 l/m 0,0 km/h (0 Bft) NO 47 5 min 0,000 mm 0,0 UV-I 166 W/m 8,7 C 10,9 C 0,0 km/h (0 Bft)
05.06.2015 07:15 11,1 C 86 % 1021,8 hPa 0,0 l/m 0,0 km/h (0 Bft) NO 47 5 min 0,000 mm 0,2 UV-I 177 W/m 8,8 C 11,1 C 0,0 km/h (0 Bft)
05.06.2015 07:20 11,3 C 85 % 1021,8 hPa 0,0 l/m 0,0 km/h (0 Bft) NO 47 5 min 0,000 mm 0,5 UV-I 191 W/m 8,9 C 11,3 C 0,0 km/h (0 Bft)
05.06.2015 07:25 11,4 C 85 % 1021,8 hPa 0,0 l/m 0,0 km/h (0 Bft) NO 47 5 min 0,000 mm 0,5 UV-I 202 W/m 9,0 C 11,4 C 0,0 km/h (0 Bft)
05.06.2015 07:30 11,6 C 85 % 1021,8 hPa 0,0 l/m 0,0 km/h (0 Bft) NO 47 5 min 0,000 mm 0,6 UV-I 212 W/m 9,2 C 11,6 C 0,0 km/h (0 Bft)
05.06.2015 07:35 11,8 C 85 % 1021,7 hPa 0,0 l/m 0,0 km/h (0 Bft) NO 47 5 min 0,000 mm 0,6 UV-I 229 W/m 9,4 C 11,8 C 0,0 km/h (0 Bft)
05.06.2015 07:40 12,2 C 84 % 1021,7 hPa 0,0 l/m 0,0 km/h (0 Bft) NO 47 5 min 0,000 mm 0,6 UV-I 244 W/m 9,6 C 12,2 C 0,0 km/h (0 Bft)
05.06.2015 07:45 12,7 C 83 % 1021,6 hPa 0,0 l/m 0,0 km/h (0 Bft) NO 47 5 min 0,000 mm 0,7 UV-I 258 W/m 9,9 C 12,7 C 0,0 km/h (0 Bft)
05.06.2015 07:50 13,2 C 80 % 1021,6 hPa 0,0 l/m 0,0 km/h (0 Bft) NO 47 5 min 0,000 mm 0,7 UV-I 272 W/m 9,8 C 13,2 C 0,0 km/h (0 Bft)
05.06.2015 07:55 13,7 C 80 % 1021,6 hPa 0,0 l/m 0,0 km/h (0 Bft) NO 47 5 min 0,000 mm 0,8 UV-I 285 W/m 10,3 C 13,7 C 0,0 km/h (0 Bft)
05.06.2015 08:00 14,1 C 78 % 1021,7 hPa 0,0 l/m 0,0 km/h (0 Bft) NO 47 5 min 0,101 mm 0,8 UV-I 297 W/m 10,3 C 14,1 C 0,0 km/h (0 Bft)
05.06.2015 08:05 14,6 C 77 % 1021,6 hPa 0,0 l/m 0,0 km/h (0 Bft) NO 47 5 min 0,000 mm 0,9 UV-I 313 W/m 10,6 C 14,6 C 0,0 km/h (0 Bft)
05.06.2015 08:10 15,1 C 75 % 1021,6 hPa 0,0 l/m 0,0 km/h (0 Bft) NO 47 5 min 0,000 mm 1,0 UV-I 326 W/m 10,7 C 15,1 C 0,0 km/h (0 Bft)
05.06.2015 08:15 15,7 C 73 % 1021,5 hPa 0,0 l/m 0,0 km/h (0 Bft) NO 47 5 min 0,000 mm 1,0 UV-I 339 W/m 10,9 C 15,7 C 0,0 km/h (0 Bft)
05.06.2015 08:20 16,3 C 72 % 1021,5 hPa 0,0 l/m 0,0 km/h (0 Bft) NO 47 5 min 0,000 mm 1,1 UV-I 350 W/m 11,2 C 16,3 C 0,0 km/h (0 Bft)
05.06.2015 08:25 17,1 C 69 % 1021,4 hPa 0,0 l/m 0,0 km/h (0 Bft) NO 47 5 min 0,000 mm 1,1 UV-I 362 W/m 11,4 C 17,1 C 0,0 km/h (0 Bft)
05.06.2015 08:30 17,6 C 66 % 1021,4 hPa 0,0 l/m 0,0 km/h (0 Bft) NO 47 5 min 0,000 mm 1,2 UV-I 374 W/m 11,2 C 17,6 C 0,0 km/h (0 Bft)
05.06.2015 08:35 17,9 C 66 % 1021,3 hPa 0,0 l/m 0,0 km/h (0 Bft) NO 47 5 min 0,000 mm 1,3 UV-I 380 W/m 11,5 C 17,9 C 0,0 km/h (0 Bft)
05.06.2015 08:40 18,3 C 65 % 1021,2 hPa 0,0 l/m 0,0 km/h (0 Bft) NO 47 5 min 0,000 mm 1,4 UV-I 397 W/m 11,6 C 18,3 C 0,0 km/h (0 Bft)
05.06.2015 08:45 18,7 C 63 % 1021,3 hPa 0,0 l/m 0,2 km/h (0 Bft) O-SO 117 5 min 0,000 mm 1,5 UV-I 392 W/m 11,5 C 18,7 C 1,6 km/h (1 Bft)
05.06.2015 08:50 19,0 C 62 % 1021,3 hPa 0,0 l/m 1,0 km/h (0 Bft) O-SO 117 5 min 0,000 mm 1,6 UV-I 428 W/m 11,6 C 19,0 C 6,4 km/h (2 Bft)
05.06.2015 08:55 19,3 C 62 % 1021,2 hPa 0,0 l/m 1,3 km/h (1 Bft) O 99 5 min 0,000 mm 1,7 UV-I 436 W/m 11,8 C 19,3 C 4,8 km/h (1 Bft)
05.06.2015 09:00 19,4 C 61 % 1021,2 hPa 0,0 l/m 2,2 km/h (1 Bft) NO 46 5 min 0,203 mm 1,8 UV-I 452 W/m 11,7 C 19,4 C 11,3 km/h (2 Bft)
05.06.2015 09:05 20,0 C 61 % 1021,3 hPa 0,0 l/m 1,2 km/h (1 Bft) O-NO 61 5 min 0,000 mm 1,9 UV-I 459 W/m 12,2 C 20,0 C 11,3 km/h (2 Bft)
05.06.2015 09:10 20,8 C 57 % 1021,3 hPa 0,0 l/m 2,2 km/h (1 Bft) NO 53 5 min 0,000 mm 2,0 UV-I 487 W/m 12,0 C 20,8 C 8,0 km/h (2 Bft)
05.06.2015 09:15 21,3 C 55 % 1021,3 hPa 0,0 l/m 1,9 km/h (1 Bft) NO 56 5 min 0,000 mm 2,1 UV-I 499 W/m 11,9 C 21,3 C 11,3 km/h (2 Bft)
05.06.2015 09:20 21,7 C 53 % 1021,3 hPa 0,0 l/m 2,5 km/h (1 Bft) O 98 5 min 0,000 mm 2,2 UV-I 523 W/m 11,7 C 21,7 C 9,7 km/h (2 Bft)
05.06.2015 09:25 21,4 C 54 % 1021,2 hPa 0,0 l/m 4,6 km/h (1 Bft) O-NO 78 5 min 0,000 mm 2,3 UV-I 504 W/m 11,7 C 21,4 C 12,9 km/h (3 Bft)
05.06.2015 09:30 21,4 C 54 % 1021,3 hPa 0,0 l/m 6,2 km/h (2 Bft) O-NO 74 5 min 0,000 mm 2,4 UV-I 527 W/m 11,7 C 21,4 C 12,9 km/h (3 Bft)
05.06.2015 09:35 21,6 C 54 % 1021,3 hPa 0,0 l/m 2,3 km/h (1 Bft) O-NO 57 5 min 0,000 mm 2,6 UV-I 561 W/m 11,9 C 21,6 C 8,0 km/h (2 Bft)
05.06.2015 09:40 22,0 C 52 % 1021,3 hPa 0,0 l/m 1,8 km/h (1 Bft) O-NO 71 5 min 0,000 mm 2,6 UV-I 536 W/m 11,7 C 22,0 C 8,0 km/h (2 Bft)
05.06.2015 09:45 22,3 C 52 % 1021,1 hPa 0,0 l/m 2,1 km/h (1 Bft) O-NO 59 5 min 0,000 mm 2,7 UV-I 538 W/m 12,0 C 22,3 C 11,3 km/h (2 Bft)
05.06.2015 09:50 22,7 C 51 % 1021,2 hPa 0,0 l/m 5,2 km/h (1 Bft) O-NO 60 5 min 0,000 mm 2,9 UV-I 585 W/m 12,0 C 22,7 C 11,3 km/h (2 Bft)
05.06.2015 09:55 22,8 C 51 % 1021,1 hPa 0,0 l/m 2,2 km/h (1 Bft) NO 51 5 min 0,000 mm 2,9 UV-I 565 W/m 12,1 C 22,8 C 8,0 km/h (2 Bft)
05.06.2015 10:00 22,5 C 51 % 1021,0 hPa 0,0 l/m 2,1 km/h (1 Bft) O 89 5 min 0,331 mm 3,1 UV-I 587 W/m 11,8 C 22,5 C 11,3 km/h (2 Bft)
05.06.2015 10:05 22,3 C 54 % 1021,0 hPa 0,0 l/m 2,4 km/h (1 Bft) O-SO 106 5 min 0,000 mm 3,2 UV-I 619 W/m 12,5 C 22,3 C 11,3 km/h (2 Bft)
05.06.2015 10:10 21,7 C 53 % 1021,0 hPa 0,0 l/m 3,1 km/h (1 Bft) O 92 5 min 0,000 mm 3,0 UV-I 497 W/m 11,7 C 21,7 C 12,9 km/h (3 Bft)
05.06.2015 10:15 22,5 C 54 % 1021,0 hPa 0,0 l/m 1,1 km/h (1 Bft) O 84 5 min 0,000 mm 3,5 UV-I 649 W/m 12,7 C 22,5 C 6,4 km/h (2 Bft)
05.06.2015 10:20 23,2 C 50 % 1021,0 hPa 0,0 l/m 1,9 km/h (1 Bft) O-NO 70 5 min 0,000 mm 3,6 UV-I 658 W/m 12,2 C 23,2 C 9,7 km/h (2 Bft)
05.06.2015 10:25 22,7 C 53 % 1020,9 hPa 0,0 l/m 4,5 km/h (1 Bft) NO 53 5 min 0,000 mm 3,7 UV-I 665 W/m 12,6 C 22,7 C 14,5 km/h (3 Bft)
05.06.2015 10:30 23,3 C 52 % 1020,9 hPa 0,0 l/m 1,6 km/h (1 Bft) SO 124 5 min 0,000 mm 3,6 UV-I 611 W/m 12,9 C 23,3 C 8,0 km/h (2 Bft)
05.06.2015 10:35 23,2 C 52 % 1020,8 hPa 0,0 l/m 1,4 km/h (1 Bft) O-NO 59 5 min 0,000 mm 3,9 UV-I 670 W/m 12,8 C 23,2 C 6,4 km/h (2 Bft)
05.06.2015 10:40 23,8 C 53 % 1020,9 hPa 0,0 l/m 1,5 km/h (1 Bft) O 81 5 min 0,000 mm 4,0 UV-I 675 W/m 13,6 C 23,8 C 8,0 km/h (2 Bft)
05.06.2015 10:45 23,9 C 50 % 1020,8 hPa 0,0 l/m 3,1 km/h (1 Bft) NO 51 5 min 0,000 mm 3,8 UV-I 586 W/m 12,8 C 23,9 C 12,9 km/h (3 Bft)
05.06.2015 10:50 24,8 C 49 % 1020,9 hPa 0,0 l/m 2,4 km/h (1 Bft) O-NO 65 5 min 0,000 mm 4,3 UV-I 678 W/m 13,3 C 24,8 C 12,9 km/h (3 Bft)
05.06.2015 10:55 26,2 C 45 % 1020,9 hPa 0,0 l/m 0,1 km/h (0 Bft) S-SW 199 5 min 0,000 mm 4,4 UV-I 708 W/m 13,3 C 26,2 C 1,6 km/h (1 Bft)
05.06.2015 11:00 25,4 C 48 % 1020,7 hPa 0,0 l/m 1,1 km/h (1 Bft) O 94 5 min 0,000 mm 4,5 UV-I 715 W/m 13,6 C 25,4 C 11,3 km/h (2 Bft)
05.06.2015 11:05 24,7 C 49 % 1020,7 hPa 0,0 l/m 1,8 km/h (1 Bft) O 87 5 min 0,406 mm 4,7 UV-I 744 W/m 13,3 C 24,7 C 11,3 km/h (2 Bft)
05.06.2015 11:10 25,8 C 48 % 1020,7 hPa 0,0 l/m 1,2 km/h (1 Bft) NO 38 5 min 0,000 mm 4,8 UV-I 749 W/m 13,9 C 25,8 C 8,0 km/h (2 Bft)
05.06.2015 11:15 26,1 C 45 % 1020,6 hPa 0,0 l/m 3,9 km/h (1 Bft) O-SO 107 5 min 0,000 mm 4,9 UV-I 748 W/m 13,2 C 26,1 C 11,3 km/h (2 Bft)
05.06.2015 11:20 26,1 C 46 % 1020,5 hPa 0,0 l/m 0,2 km/h (0 Bft) O-NO 78 5 min 0,000 mm 5,1 UV-I 778 W/m 13,6 C 26,1 C 4,8 km/h (1 Bft)
05.06.2015 11:25 25,4 C 47 % 1020,5 hPa 0,0 l/m 1,5 km/h (1 Bft) O 87 5 min 0,000 mm 5,2 UV-I 789 W/m 13,3 C 25,4 C 8,0 km/h (2 Bft)
05.06.2015 11:30 26,1 C 48 % 1020,4 hPa 0,0 l/m 1,6 km/h (1 Bft) O-NO 70 5 min 0,000 mm 5,3 UV-I 779 W/m 14,2 C 26,1 C 12,9 km/h (3 Bft)
05.06.2015 11:35 26,6 C 46 % 1020,5 hPa 0,0 l/m 2,6 km/h (1 Bft) O-NO 59 5 min 0,000 mm 5,4 UV-I 798 W/m 14,0 C 26,6 C 9,7 km/h (2 Bft)
05.06.2015 11:40 27,0 C 45 % 1020,4 hPa 0,0 l/m 1,2 km/h (1 Bft) O-SO 117 5 min 0,000 mm 5,4 UV-I 802 W/m 14,0 C 27,0 C 6,4 km/h (2 Bft)
05.06.2015 11:45 26,2 C 47 % 1020,4 hPa 0,0 l/m 1,9 km/h (1 Bft) O 89 5 min 0,000 mm 5,5 UV-I 809 W/m 14,0 C 26,2 C 9,7 km/h (2 Bft)
05.06.2015 11:50 26,8 C 46 % 1020,5 hPa 0,0 l/m 3,2 km/h (1 Bft) NO 53 5 min 0,000 mm 5,6 UV-I 805 W/m 14,2 C 26,8 C 12,9 km/h (3 Bft)
05.06.2015 11:55 28,6 C 43 % 1020,4 hPa 0,0 l/m 3,4 km/h (1 Bft) NO 46 5 min 0,000 mm 5,7 UV-I 802 W/m 14,8 C 28,6 C 11,3 km/h (2 Bft)
05.06.2015 12:00 28,3 C 43 % 1020,4 hPa 0,0 l/m 3,3 km/h (1 Bft) O-NO 74 5 min 0,000 mm 5,8 UV-I 805 W/m 14,5 C 28,3 C 12,9 km/h (3 Bft)
05.06.2015 12:05 28,6 C 43 % 1020,3 hPa 0,0 l/m 2,9 km/h (1 Bft) O-NO 78 5 min 0,508 mm 5,8 UV-I 805 W/m 14,8 C 28,6 C 14,5 km/h (3 Bft)
05.06.2015 12:10 29,1 C 43 % 1020,3 hPa 0,0 l/m 4,2 km/h (1 Bft) N-NO 32 5 min 0,000 mm 5,9 UV-I 812 W/m 15,2 C 29,1 C 16,1 km/h (3 Bft)
05.06.2015 12:15 28,9 C 42 % 1020,3 hPa 0,0 l/m 1,1 km/h (1 Bft) O-SO 114 5 min 0,000 mm 6,0 UV-I 820 W/m 14,7 C 28,9 C 8,0 km/h (2 Bft)
05.06.2015 12:20 28,3 C 44 % 1020,3 hPa 0,0 l/m 3,6 km/h (1 Bft) N 360 5 min 0,000 mm 6,1 UV-I 825 W/m 14,9 C 28,3 C 14,5 km/h (3 Bft)
05.06.2015 12:25 29,1 C 43 % 1020,3 hPa 0,0 l/m 2,8 km/h (1 Bft) O-NO 67 5 min 0,000 mm 6,1 UV-I 830 W/m 15,2 C 29,1 C 12,9 km/h (3 Bft)
05.06.2015 12:30 28,1 C 44 % 1020,3 hPa 0,0 l/m 1,3 km/h (1 Bft) O 93 5 min 0,000 mm 6,2 UV-I 839 W/m 14,7 C 28,1 C 6,4 km/h (2 Bft)
05.06.2015 12:35 28,2 C 44 % 1020,2 hPa 0,0 l/m 5,0 km/h (1 Bft) O-SO 109 5 min 0,000 mm 6,2 UV-I 846 W/m 14,8 C 28,2 C 16,1 km/h (3 Bft)
05.06.2015 12:40 28,7 C 44 % 1020,1 hPa 0,0 l/m 7,5 km/h (2 Bft) NO 51 5 min 0,000 mm 6,3 UV-I 846 W/m 15,2 C 28,6 C 14,5 km/h (3 Bft)
05.06.2015 12:45 27,7 C 46 % 1020,0 hPa 0,0 l/m 3,6 km/h (1 Bft) O 96 5 min 0,000 mm 6,4 UV-I 847 W/m 15,0 C 27,7 C 9,7 km/h (2 Bft)
05.06.2015 12:50 28,7 C 44 % 1019,9 hPa 0,0 l/m 6,7 km/h (2 Bft) O-NO 58 5 min 0,000 mm 6,5 UV-I 852 W/m 15,2 C 28,7 C 16,1 km/h (3 Bft)
05.06.2015 12:55 29,2 C 43 % 1019,9 hPa 0,0 l/m 2,5 km/h (1 Bft) O-SO 119 5 min 0,000 mm 6,5 UV-I 855 W/m 15,3 C 29,2 C 12,9 km/h (3 Bft)
05.06.2015 13:00 29,4 C 43 % 1019,9 hPa 0,0 l/m 4,9 km/h (1 Bft) O-SO 118 5 min 0,000 mm 6,5 UV-I 855 W/m 15,5 C 29,4 C 12,9 km/h (3 Bft)
05.06.2015 13:05 28,6 C 45 % 1019,8 hPa 0,0 l/m 3,8 km/h (1 Bft) O-NO 59 5 min 0,584 mm 6,5 UV-I 855 W/m 15,5 C 28,6 C 12,9 km/h (3 Bft)
05.06.2015 13:10 30,1 C 41 % 1019,7 hPa 0,0 l/m 3,4 km/h (1 Bft) O 89 5 min 0,000 mm 6,5 UV-I 848 W/m 15,4 C 30,1 C 12,9 km/h (3 Bft)
05.06.2015 13:15 29,1 C 44 % 1019,6 hPa 0,0 l/m 1,0 km/h (0 Bft) O-SO 109 5 min 0,000 mm 6,5 UV-I 856 W/m 15,6 C 29,1 C 8,0 km/h (2 Bft)
05.06.2015 13:20 28,4 C 44 % 1019,6 hPa 0,0 l/m 3,2 km/h (1 Bft) S-SW 202 5 min 0,000 mm 6,5 UV-I 859 W/m 14,9 C 28,4 C 11,3 km/h (2 Bft)
05.06.2015 13:25 28,4 C 45 % 1019,5 hPa 0,0 l/m 5,1 km/h (1 Bft) SW 220 5 min 0,000 mm 6,5 UV-I 860 W/m 15,3 C 28,4 C 14,5 km/h (3 Bft)
05.06.2015 13:30 28,4 C 45 % 1019,5 hPa 0,0 l/m 2,6 km/h (1 Bft) O-SO 111 5 min 0,000 mm 6,5 UV-I 860 W/m 15,3 C 28,4 C 12,9 km/h (3 Bft)
05.06.2015 13:35 28,7 C 44 % 1019,4 hPa 0,0 l/m 3,0 km/h (1 Bft) O-SO 123 5 min 0,000 mm 6,5 UV-I 863 W/m 15,2 C 28,7 C 11,3 km/h (2 Bft)
05.06.2015 13:40 28,5 C 45 % 1019,3 hPa 0,0 l/m 1,2 km/h (1 Bft) O-SO 110 5 min 0,000 mm 6,5 UV-I 861 W/m 15,4 C 28,5 C 6,4 km/h (2 Bft)
05.06.2015 13:45 30,0 C 42 % 1019,2 hPa 0,0 l/m 0,8 km/h (0 Bft) SW 216 5 min 0,000 mm 6,5 UV-I 860 W/m 15,7 C 30,0 C 6,4 km/h (2 Bft)
05.06.2015 13:50 30,3 C 42 % 1019,2 hPa 0,0 l/m 3,2 km/h (1 Bft) NO 49 5 min 0,000 mm 6,5 UV-I 862 W/m 15,9 C 30,3 C 9,7 km/h (2 Bft)
05.06.2015 13:55 30,3 C 40 % 1019,1 hPa 0,0 l/m 8,4 km/h (2 Bft) SO 137 5 min 0,000 mm 6,5 UV-I 861 W/m 15,2 C 30,1 C 20,9 km/h (4 Bft)
05.06.2015 14:00 30,2 C 42 % 1019,1 hPa 0,0 l/m 2,7 km/h (1 Bft) S 186 5 min 0,000 mm 6,5 UV-I 862 W/m 15,8 C 30,2 C 9,7 km/h (2 Bft)
05.06.2015 14:05 30,2 C 41 % 1019,0 hPa 0,0 l/m 3,2 km/h (1 Bft) SO 126 5 min 0,610 mm 6,3 UV-I 856 W/m 15,5 C 30,2 C 11,3 km/h (2 Bft)
05.06.2015 14:10 30,1 C 42 % 1018,9 hPa 0,0 l/m 2,7 km/h (1 Bft) S-SO 153 5 min 0,000 mm 6,3 UV-I 860 W/m 15,7 C 30,1 C 14,5 km/h (3 Bft)
05.06.2015 14:15 30,6 C 40 % 1018,9 hPa 0,0 l/m 5,0 km/h (1 Bft) SO 138 5 min 0,000 mm 6,2 UV-I 853 W/m 15,4 C 30,6 C 17,7 km/h (3 Bft)
05.06.2015 14:20 30,3 C 41 % 1018,9 hPa 0,0 l/m 8,1 km/h (2 Bft) O 94 5 min 0,000 mm 6,2 UV-I 848 W/m 15,6 C 30,2 C 17,7 km/h (3 Bft)
05.06.2015 14:25 29,6 C 42 % 1018,9 hPa 0,0 l/m 10,1 km/h (2 Bft) SO 138 5 min 0,000 mm 6,1 UV-I 858 W/m 15,3 C 29,2 C 19,3 km/h (3 Bft)
05.06.2015 14:30 29,4 C 44 % 1018,9 hPa 0,0 l/m 7,1 km/h (2 Bft) W-SW 241 5 min 0,000 mm 6,1 UV-I 850 W/m 15,8 C 29,3 C 17,7 km/h (3 Bft)
05.06.2015 14:35 30,3 C 43 % 1018,8 hPa 0,0 l/m 2,7 km/h (1 Bft) S-SW 209 5 min 0,000 mm 6,0 UV-I 840 W/m 16,3 C 30,3 C 16,1 km/h (3 Bft)
05.06.2015 14:40 30,1 C 41 % 1018,8 hPa 0,0 l/m 4,6 km/h (1 Bft) S 172 5 min 0,000 mm 5,9 UV-I 844 W/m 15,4 C 30,1 C 16,1 km/h (3 Bft)
05.06.2015 14:45 29,8 C 42 % 1018,8 hPa 0,0 l/m 7,4 km/h (2 Bft) SO 128 5 min 0,000 mm 5,7 UV-I 829 W/m 15,5 C 29,7 C 16,1 km/h (3 Bft)
05.06.2015 14:50 29,8 C 43 % 1018,8 hPa 0,0 l/m 5,8 km/h (2 Bft) S 187 5 min 0,000 mm 5,7 UV-I 831 W/m 15,8 C 29,8 C 19,3 km/h (3 Bft)
05.06.2015 14:55 30,9 C 41 % 1018,7 hPa 0,0 l/m 2,6 km/h (1 Bft) S-SO 154 5 min 0,000 mm 5,6 UV-I 827 W/m 16,1 C 30,9 C 14,5 km/h (3 Bft)
05.06.2015 15:00 30,1 C 42 % 1018,6 hPa 0,0 l/m 7,2 km/h (2 Bft) S-SO 161 5 min 0,000 mm 5,4 UV-I 813 W/m 15,7 C 30,0 C 14,5 km/h (3 Bft)
05.06.2015 15:05 29,8 C 44 % 1018,5 hPa 0,0 l/m 6,7 km/h (2 Bft) O 88 5 min 0,609 mm 5,3 UV-I 811 W/m 16,2 C 29,8 C 16,1 km/h (3 Bft)
05.06.2015 15:10 29,8 C 44 % 1018,4 hPa 0,0 l/m 9,5 km/h (2 Bft) O-SO 119 5 min 0,000 mm 5,2 UV-I 807 W/m 16,2 C 29,5 C 20,9 km/h (4 Bft)
05.06.2015 15:15 30,3 C 42 % 1018,5 hPa 0,0 l/m 8,1 km/h (2 Bft) O-SO 110 5 min 0,000 mm 5,1 UV-I 803 W/m 15,9 C 30,2 C 17,7 km/h (3 Bft)
05.06.2015 15:20 30,6 C 42 % 1018,3 hPa 0,0 l/m 5,6 km/h (1 Bft) SW 232 5 min 0,000 mm 4,9 UV-I 790 W/m 16,2 C 30,6 C 14,5 km/h (3 Bft)
05.06.2015 15:25 31,0 C 42 % 1018,3 hPa 0,0 l/m 2,2 km/h (1 Bft) O 100 5 min 0,000 mm 4,9 UV-I 789 W/m 16,6 C 31,0 C 12,9 km/h (3 Bft)
05.06.2015 15:30 31,1 C 41 % 1018,3 hPa 0,0 l/m 3,4 km/h (1 Bft) S-SW 209 5 min 0,000 mm 4,7 UV-I 780 W/m 16,3 C 31,1 C 16,1 km/h (3 Bft)
05.06.2015 15:35 31,1 C 42 % 1018,2 hPa 0,0 l/m 6,2 km/h (2 Bft) O-SO 116 5 min 0,000 mm 4,6 UV-I 776 W/m 16,6 C 31,1 C 16,1 km/h (3 Bft)
05.06.2015 15:40 31,1 C 42 % 1018,1 hPa 0,0 l/m 2,5 km/h (1 Bft) O-SO 107 5 min 0,000 mm 4,4 UV-I 768 W/m 16,6 C 31,1 C 8,0 km/h (2 Bft)
05.06.2015 15:45 30,9 C 42 % 1018,0 hPa 0,0 l/m 6,3 km/h (2 Bft) S 186 5 min 0,000 mm 3,7 UV-I 528 W/m 16,5 C 30,9 C 16,1 km/h (3 Bft)
05.06.2015 15:50 31,5 C 41 % 1018,0 hPa 0,0 l/m 2,3 km/h (1 Bft) S 178 0 min 0,000 mm 2,9 UV-I 219 W/m 16,6 C 31,5 C 12,9 km/h (3 Bft)
05.06.2015 15:55 31,6 C 40 % 1017,9 hPa 0,0 l/m 4,5 km/h (1 Bft) O 89 5 min 0,000 mm 4,0 UV-I 755 W/m 16,3 C 31,6 C 14,5 km/h (3 Bft)
05.06.2015 16:00 31,6 C 40 % 1017,8 hPa 0,0 l/m 1,5 km/h (1 Bft) W-NW 294 5 min 0,000 mm 4,1 UV-I 775 W/m 16,3 C 31,6 C 6,4 km/h (2 Bft)
05.06.2015 16:05 32,7 C 38 % 1017,8 hPa 0,0 l/m 3,2 km/h (1 Bft) O 99 5 min 0,534 mm 4,0 UV-I 757 W/m 16,5 C 32,7 C 14,5 km/h (3 Bft)
05.06.2015 16:10 31,6 C 39 % 1017,7 hPa 0,0 l/m 6,5 km/h (2 Bft) S-SO 159 5 min 0,000 mm 3,9 UV-I 753 W/m 15,9 C 31,6 C 14,5 km/h (3 Bft)
05.06.2015 16:15 31,8 C 36 % 1017,7 hPa 0,0 l/m 6,4 km/h (2 Bft) SW 228 5 min 0,000 mm 3,9 UV-I 752 W/m 14,9 C 31,8 C 22,5 km/h (4 Bft)
05.06.2015 16:20 32,6 C 35 % 1017,7 hPa 0,0 l/m 3,1 km/h (1 Bft) SW 217 5 min 0,000 mm 3,8 UV-I 729 W/m 15,1 C 32,6 C 11,3 km/h (2 Bft)
05.06.2015 16:25 32,8 C 33 % 1017,6 hPa 0,0 l/m 7,8 km/h (2 Bft) S 173 5 min 0,000 mm 3,5 UV-I 699 W/m 14,4 C 32,8 C 17,7 km/h (3 Bft)
05.06.2015 16:30 32,5 C 33 % 1017,5 hPa 0,0 l/m 4,9 km/h (1 Bft) S 176 5 min 0,000 mm 3,4 UV-I 684 W/m 14,1 C 32,5 C 16,1 km/h (3 Bft)
05.06.2015 16:35 32,3 C 32 % 1017,5 hPa 0,0 l/m 5,0 km/h (1 Bft) S 184 5 min 0,000 mm 3,4 UV-I 683 W/m 13,5 C 32,3 C 14,5 km/h (3 Bft)
05.06.2015 16:40 32,7 C 32 % 1017,4 hPa 0,0 l/m 5,9 km/h (2 Bft) SW 219 5 min 0,000 mm 3,2 UV-I 670 W/m 13,8 C 32,7 C 20,9 km/h (4 Bft)
05.06.2015 16:45 32,5 C 31 % 1017,3 hPa 0,0 l/m 6,4 km/h (2 Bft) W-SW 254 5 min 0,000 mm 3,1 UV-I 657 W/m 13,2 C 32,5 C 14,5 km/h (3 Bft)
05.06.2015 16:50 32,2 C 34 % 1017,3 hPa 0,0 l/m 7,5 km/h (2 Bft) W-SW 241 5 min 0,000 mm 3,0 UV-I 649 W/m 14,3 C 32,2 C 19,3 km/h (3 Bft)
05.06.2015 16:55 32,2 C 32 % 1017,3 hPa 0,0 l/m 7,3 km/h (2 Bft) S-SW 211 5 min 0,000 mm 2,8 UV-I 626 W/m 13,4 C 32,2 C 19,3 km/h (3 Bft)
05.06.2015 17:00 32,3 C 32 % 1017,2 hPa 0,0 l/m 3,6 km/h (1 Bft) SO 136 5 min 0,000 mm 2,8 UV-I 631 W/m 13,5 C 32,3 C 14,5 km/h (3 Bft)
05.06.2015 17:05 31,5 C 34 % 1017,0 hPa 0,0 l/m 5,6 km/h (1 Bft) S-SO 162 5 min 0,533 mm 2,7 UV-I 616 W/m 13,7 C 31,5 C 14,5 km/h (3 Bft)
05.06.2015 17:10 31,9 C 33 % 1017,0 hPa 0,0 l/m 6,8 km/h (2 Bft) SW 219 5 min 0,000 mm 2,6 UV-I 611 W/m 13,6 C 31,9 C 16,1 km/h (3 Bft)
05.06.2015 17:15 32,5 C 32 % 1017,0 hPa 0,0 l/m 4,9 km/h (1 Bft) S 170 5 min 0,000 mm 2,5 UV-I 594 W/m 13,6 C 32,5 C 17,7 km/h (3 Bft)
05.06.2015 17:20 32,2 C 31 % 1016,8 hPa 0,0 l/m 5,5 km/h (1 Bft) W-SW 243 5 min 0,000 mm 2,3 UV-I 582 W/m 12,9 C 32,2 C 16,1 km/h (3 Bft)
05.06.2015 17:25 32,3 C 33 % 1016,7 hPa 0,0 l/m 5,3 km/h (1 Bft) O-SO 123 5 min 0,000 mm 2,2 UV-I 571 W/m 13,9 C 32,3 C 12,9 km/h (3 Bft)
05.06.2015 17:30 32,4 C 32 % 1016,6 hPa 0,0 l/m 3,5 km/h (1 Bft) S-SW 200 5 min 0,000 mm 2,1 UV-I 557 W/m 13,6 C 32,4 C 11,3 km/h (2 Bft)
05.06.2015 17:35 32,7 C 31 % 1016,5 hPa 0,0 l/m 3,3 km/h (1 Bft) S-SW 207 5 min 0,000 mm 2,1 UV-I 544 W/m 13,3 C 32,7 C 11,3 km/h (2 Bft)
05.06.2015 17:40 32,7 C 31 % 1016,4 hPa 0,0 l/m 6,1 km/h (2 Bft) W 270 5 min 0,000 mm 2,0 UV-I 536 W/m 13,3 C 32,7 C 14,5 km/h (3 Bft)
05.06.2015 17:45 32,1 C 33 % 1016,2 hPa 0,0 l/m 8,7 km/h (2 Bft) W-SW 248 5 min 0,000 mm 1,9 UV-I 525 W/m 13,8 C 32,0 C 20,9 km/h (4 Bft)
05.06.2015 17:50 32,1 C 33 % 1016,3 hPa 0,0 l/m 4,3 km/h (1 Bft) SW 216 5 min 0,000 mm 1,8 UV-I 512 W/m 13,8 C 32,1 C 16,1 km/h (3 Bft)
05.06.2015 17:55 32,5 C 32 % 1016,2 hPa 0,0 l/m 3,6 km/h (1 Bft) S 184 5 min 0,000 mm 1,6 UV-I 484 W/m 13,6 C 32,5 C 11,3 km/h (2 Bft)
05.06.2015 18:00 32,6 C 31 % 1016,0 hPa 0,0 l/m 2,8 km/h (1 Bft) O-SO 117 5 min 0,000 mm 1,5 UV-I 476 W/m 13,2 C 32,6 C 9,7 km/h (2 Bft)
05.06.2015 18:05 32,4 C 31 % 1016,0 hPa 0,0 l/m 1,1 km/h (1 Bft) O 101 5 min 0,457 mm 1,5 UV-I 462 W/m 13,1 C 32,4 C 4,8 km/h (1 Bft)
05.06.2015 18:10 32,5 C 33 % 1015,9 hPa 0,0 l/m 2,8 km/h (1 Bft) S 182 5 min 0,000 mm 1,4 UV-I 458 W/m 14,1 C 32,5 C 8,0 km/h (2 Bft)
05.06.2015 18:15 32,6 C 32 % 1015,9 hPa 0,0 l/m 3,5 km/h (1 Bft) S 176 5 min 0,000 mm 1,3 UV-I 447 W/m 13,7 C 32,6 C 12,9 km/h (3 Bft)
05.06.2015 18:20 32,6 C 32 % 1015,9 hPa 0,0 l/m 3,0 km/h (1 Bft) W-SW 246 5 min 0,000 mm 1,3 UV-I 437 W/m 13,7 C 32,6 C 9,7 km/h (2 Bft)
05.06.2015 18:25 32,3 C 31 % 1015,9 hPa 0,0 l/m 4,0 km/h (1 Bft) O-SO 117 5 min 0,000 mm 1,2 UV-I 418 W/m 13,0 C 32,3 C 12,9 km/h (3 Bft)
05.06.2015 18:30 31,8 C 32 % 1015,9 hPa 0,0 l/m 5,1 km/h (1 Bft) SO 130 5 min 0,000 mm 1,1 UV-I 395 W/m 13,0 C 31,8 C 14,5 km/h (3 Bft)
05.06.2015 18:35 31,3 C 32 % 1015,9 hPa 0,0 l/m 4,6 km/h (1 Bft) S-SW 212 5 min 0,000 mm 1,0 UV-I 383 W/m 12,6 C 31,3 C 12,9 km/h (3 Bft)
05.06.2015 18:40 31,7 C 32 % 1015,9 hPa 0,0 l/m 3,7 km/h (1 Bft) S 184 5 min 0,000 mm 0,9 UV-I 370 W/m 12,9 C 31,7 C 11,3 km/h (2 Bft)
05.06.2015 18:45 32,0 C 33 % 1015,9 hPa 0,0 l/m 3,7 km/h (1 Bft) W 269 5 min 0,000 mm 0,9 UV-I 356 W/m 13,7 C 32,0 C 14,5 km/h (3 Bft)
05.06.2015 18:50 32,1 C 33 % 1015,9 hPa 0,0 l/m 5,2 km/h (1 Bft) S-SW 211 5 min 0,000 mm 0,8 UV-I 337 W/m 13,8 C 32,1 C 12,9 km/h (3 Bft)
05.06.2015 18:55 32,1 C 33 % 1015,9 hPa 0,0 l/m 1,7 km/h (1 Bft) SW 230 5 min 0,000 mm 0,7 UV-I 321 W/m 13,8 C 32,1 C 12,9 km/h (3 Bft)
05.06.2015 19:00 32,2 C 33 % 1015,9 hPa 0,0 l/m 1,4 km/h (1 Bft) S-SO 157 5 min 0,000 mm 0,7 UV-I 310 W/m 13,9 C 32,2 C 8,0 km/h (2 Bft)
05.06.2015 19:05 31,7 C 33 % 1015,9 hPa 0,0 l/m 5,7 km/h (1 Bft) S-SW 202 5 min 0,331 mm 0,6 UV-I 296 W/m 13,4 C 31,7 C 14,5 km/h (3 Bft)
05.06.2015 19:10 31,6 C 34 % 1015,8 hPa 0,0 l/m 1,4 km/h (1 Bft) S-SO 163 5 min 0,000 mm 0,6 UV-I 282 W/m 13,8 C 31,6 C 6,4 km/h (2 Bft)
05.06.2015 19:15 31,9 C 34 % 1015,8 hPa 0,0 l/m 0,3 km/h (0 Bft) S-SW 196 5 min 0,000 mm 0,5 UV-I 252 W/m 14,1 C 31,9 C 4,8 km/h (1 Bft)
05.06.2015 19:20 31,7 C 35 % 1015,9 hPa 0,0 l/m 4,4 km/h (1 Bft) O 101 5 min 0,000 mm 0,2 UV-I 236 W/m 14,3 C 31,7 C 11,3 km/h (2 Bft)
05.06.2015 19:25 31,2 C 36 % 1015,8 hPa 0,0 l/m 1,3 km/h (1 Bft) S-SO 158 5 min 0,000 mm 0,0 UV-I 178 W/m 14,3 C 31,2 C 6,4 km/h (2 Bft)
05.06.2015 19:30 31,2 C 37 % 1015,8 hPa 0,0 l/m 1,3 km/h (1 Bft) S-SW 198 5 min 0,000 mm 0,0 UV-I 229 W/m 14,8 C 31,2 C 8,0 km/h (2 Bft)
05.06.2015 19:35 31,5 C 37 % 1015,8 hPa 0,0 l/m 1,2 km/h (1 Bft) S-SW 212 5 min 0,000 mm 0,0 UV-I 212 W/m 15,0 C 31,5 C 6,4 km/h (2 Bft)
05.06.2015 19:40 31,3 C 37 % 1015,8 hPa 0,0 l/m 2,4 km/h (1 Bft) S 171 5 min 0,000 mm 0,0 UV-I 187 W/m 14,8 C 31,3 C 9,7 km/h (2 Bft)
05.06.2015 19:45 30,9 C 38 % 1015,7 hPa 0,0 l/m 1,4 km/h (1 Bft) SW 232 5 min 0,000 mm 0,0 UV-I 178 W/m 14,9 C 30,9 C 11,3 km/h (2 Bft)
05.06.2015 19:50 31,0 C 38 % 1015,7 hPa 0,0 l/m 0,7 km/h (0 Bft) S-SO 167 5 min 0,000 mm 0,0 UV-I 166 W/m 15,0 C 31,0 C 4,8 km/h (1 Bft)
05.06.2015 19:55 31,2 C 38 % 1015,6 hPa 0,0 l/m 1,5 km/h (1 Bft) SO 140 5 min 0,000 mm 0,0 UV-I 157 W/m 15,2 C 31,2 C 8,0 km/h (2 Bft)
05.06.2015 20:00 30,6 C 40 % 1015,6 hPa 0,0 l/m 3,3 km/h (1 Bft) SO 134 5 min 0,000 mm 0,0 UV-I 141 W/m 15,4 C 30,6 C 12,9 km/h (3 Bft)
05.06.2015 20:05 30,2 C 41 % 1015,6 hPa 0,0 l/m 1,5 km/h (1 Bft) O-SO 112 5 min 0,177 mm 0,0 UV-I 129 W/m 15,5 C 30,2 C 6,4 km/h (2 Bft)
05.06.2015 20:10 30,0 C 41 % 1015,6 hPa 0,0 l/m 2,5 km/h (1 Bft) S-SO 167 5 min 0,000 mm 0,0 UV-I 120 W/m 15,3 C 30,0 C 8,0 km/h (2 Bft)
05.06.2015 20:15 30,1 C 41 % 1015,6 hPa 0,0 l/m 0,5 km/h (0 Bft) O-SO 117 5 min 0,000 mm 0,0 UV-I 108 W/m 15,4 C 30,1 C 6,4 km/h (2 Bft)
05.06.2015 20:20 29,9 C 42 % 1015,6 hPa 0,0 l/m 0,7 km/h (0 Bft) SO 134 5 min 0,000 mm 0,0 UV-I 96 W/m 15,6 C 29,9 C 3,2 km/h (1 Bft)
05.06.2015 20:25 29,9 C 43 % 1015,6 hPa 0,0 l/m 0,0 km/h (0 Bft) SO 134 5 min 0,000 mm 0,0 UV-I 83 W/m 15,9 C 29,9 C 0,0 km/h (0 Bft)
05.06.2015 20:30 29,8 C 43 % 1015,6 hPa 0,0 l/m 0,0 km/h (0 Bft) SO 134 5 min 0,000 mm 0,0 UV-I 74 W/m 15,8 C 29,8 C 1,6 km/h (1 Bft)
05.06.2015 20:35 29,6 C 45 % 1015,6 hPa 0,0 l/m 0,0 km/h (0 Bft) SO 134 0 min 0,000 mm 0,0 UV-I 64 W/m 16,4 C 29,6 C 0,0 km/h (0 Bft)
05.06.2015 20:40 29,4 C 46 % 1015,6 hPa 0,0 l/m 0,0 km/h (0 Bft) SO 134 0 min 0,000 mm 0,0 UV-I 52 W/m 16,5 C 29,4 C 0,0 km/h (0 Bft)
05.06.2015 20:45 29,3 C 46 % 1015,6 hPa 0,0 l/m 0,0 km/h (0 Bft) SO 134 0 min 0,000 mm 0,0 UV-I 44 W/m 16,5 C 29,3 C 0,0 km/h (0 Bft)
05.06.2015 20:50 29,0 C 47 % 1015,5 hPa 0,0 l/m 0,0 km/h (0 Bft) SO 134 0 min 0,000 mm 0,0 UV-I 37 W/m 16,5 C 29,0 C 0,0 km/h (0 Bft)
05.06.2015 20:55 28,8 C 47 % 1015,5 hPa 0,0 l/m 0,0 km/h (0 Bft) SO 134 0 min 0,000 mm 0,0 UV-I 29 W/m 16,3 C 28,8 C 0,0 km/h (0 Bft)
05.06.2015 21:00 28,6 C 49 % 1015,5 hPa 0,0 l/m 0,0 km/h (0 Bft) SO 134 0 min 0,000 mm 0,0 UV-I 21 W/m 16,8 C 28,6 C 0,0 km/h (0 Bft)
05.06.2015 21:05 28,3 C 49 % 1015,5 hPa 0,0 l/m 0,0 km/h (0 Bft) SO 134 0 min 0,077 mm 0,0 UV-I 15 W/m 16,5 C 28,3 C 0,0 km/h (0 Bft)
05.06.2015 21:10 28,0 C 50 % 1015,5 hPa 0,0 l/m 0,0 km/h (0 Bft) SO 134 0 min 0,000 mm 0,0 UV-I 10 W/m 16,6 C 28,0 C 0,0 km/h (0 Bft)
05.06.2015 21:15 27,8 C 51 % 1015,5 hPa 0,0 l/m 0,0 km/h (0 Bft) SO 134 0 min 0,000 mm 0,0 UV-I 7 W/m 16,7 C 27,8 C 0,0 km/h (0 Bft)
05.06.2015 21:20 27,6 C 50 % 1015,5 hPa 0,0 l/m 0,0 km/h (0 Bft) SO 134 0 min 0,000 mm 0,0 UV-I 5 W/m 16,2 C 27,6 C 0,0 km/h (0 Bft)
05.06.2015 21:25 27,3 C 50 % 1015,5 hPa 0,0 l/m 0,0 km/h (0 Bft) SO 134 0 min 0,000 mm 0,0 UV-I 3 W/m 15,9 C 27,3 C 0,0 km/h (0 Bft)
05.06.2015 21:30 27,1 C 50 % 1015,5 hPa 0,0 l/m 0,0 km/h (0 Bft) SO 134 0 min 0,000 mm 0,0 UV-I 0 W/m 15,8 C 27,1 C 0,0 km/h (0 Bft)
05.06.2015 21:35 26,8 C 51 % 1015,6 hPa 0,0 l/m 0,0 km/h (0 Bft) SO 134 0 min 0,000 mm 0,0 UV-I 0 W/m 15,8 C 26,8 C 1,6 km/h (1 Bft)
05.06.2015 21:40 26,5 C 53 % 1015,6 hPa 0,0 l/m 0,0 km/h (0 Bft) SO 134 0 min 0,000 mm 0,0 UV-I 0 W/m 16,1 C 26,5 C 0,0 km/h (0 Bft)
05.06.2015 21:45 26,2 C 54 % 1015,8 hPa 0,0 l/m 0,0 km/h (0 Bft) SO 134 0 min 0,000 mm 0,0 UV-I 0 W/m 16,1 C 26,2 C 0,0 km/h (0 Bft)
05.06.2015 21:50 26,0 C 55 % 1015,8 hPa 0,0 l/m 0,0 km/h (0 Bft) SO 134 0 min 0,000 mm 0,0 UV-I 0 W/m 16,2 C 26,0 C 0,0 km/h (0 Bft)
05.06.2015 21:55 25,8 C 55 % 1015,8 hPa 0,0 l/m 0,0 km/h (0 Bft) SO 134 0 min 0,000 mm 0,0 UV-I 0 W/m 16,1 C 25,8 C 0,0 km/h (0 Bft)
05.06.2015 22:00 25,5 C 55 % 1015,9 hPa 0,0 l/m 0,0 km/h (0 Bft) SO 134 0 min 0,000 mm 0,0 UV-I 0 W/m 15,8 C 25,5 C 0,0 km/h (0 Bft)
05.06.2015 22:05 25,2 C 57 % 1015,9 hPa 0,0 l/m 0,0 km/h (0 Bft) SO 134 0 min 0,025 mm 0,0 UV-I 0 W/m 16,1 C 25,2 C 0,0 km/h (0 Bft)
05.06.2015 22:10 24,8 C 57 % 1016,1 hPa 0,0 l/m 0,0 km/h (0 Bft) SO 134 0 min 0,000 mm 0,0 UV-I 0 W/m 15,7 C 24,8 C 0,0 km/h (0 Bft)
05.06.2015 22:15 24,4 C 59 % 1016,2 hPa 0,0 l/m 0,0 km/h (0 Bft) SO 134 0 min 0,000 mm 0,0 UV-I 0 W/m 15,9 C 24,4 C 0,0 km/h (0 Bft)
05.06.2015 22:20 24,1 C 60 % 1016,2 hPa 0,0 l/m 0,0 km/h (0 Bft) SO 134 0 min 0,000 mm 0,0 UV-I 0 W/m 15,8 C 24,1 C 0,0 km/h (0 Bft)
05.06.2015 22:25 23,7 C 61 % 1016,1 hPa 0,0 l/m 0,0 km/h (0 Bft) SO 134 0 min 0,000 mm 0,0 UV-I 0 W/m 15,7 C 23,7 C 0,0 km/h (0 Bft)
05.06.2015 22:30 23,3 C 63 % 1016,1 hPa 0,0 l/m 0,3 km/h (0 Bft) SO 134 0 min 0,000 mm 0,0 UV-I 0 W/m 15,9 C 23,3 C 3,2 km/h (1 Bft)
05.06.2015 22:35 22,8 C 65 % 1016,1 hPa 0,0 l/m 0,4 km/h (0 Bft) SO 134 0 min 0,000 mm 0,0 UV-I 0 W/m 15,9 C 22,8 C 3,2 km/h (1 Bft)
05.06.2015 22:40 22,3 C 67 % 1016,1 hPa 0,0 l/m 1,6 km/h (1 Bft) NO 53 0 min 0,000 mm 0,0 UV-I 0 W/m 15,9 C 22,3 C 6,4 km/h (2 Bft)
05.06.2015 22:45 21,7 C 69 % 1016,1 hPa 0,0 l/m 0,1 km/h (0 Bft) O 91 0 min 0,000 mm 0,0 UV-I 0 W/m 15,8 C 21,7 C 1,6 km/h (1 Bft)
05.06.2015 22:50 21,6 C 69 % 1016,1 hPa 0,0 l/m 0,0 km/h (0 Bft) O 91 0 min 0,000 mm 0,0 UV-I 0 W/m 15,7 C 21,6 C 0,0 km/h (0 Bft)
05.06.2015 22:55 21,5 C 70 % 1016,1 hPa 0,0 l/m 0,0 km/h (0 Bft) O 91 0 min 0,000 mm 0,0 UV-I 0 W/m 15,8 C 21,5 C 0,0 km/h (0 Bft)
05.06.2015 23:00 21,5 C 70 % 1016,1 hPa 0,0 l/m 0,0 km/h (0 Bft) O 91 0 min 0,000 mm 0,0 UV-I 0 W/m 15,8 C 21,5 C 0,0 km/h (0 Bft)
05.06.2015 23:05 21,4 C 69 % 1015,9 hPa 0,0 l/m 0,0 km/h (0 Bft) O 91 0 min 0,025 mm 0,0 UV-I 0 W/m 15,5 C 21,4 C 0,0 km/h (0 Bft)
05.06.2015 23:10 21,4 C 69 % 1015,9 hPa 0,0 l/m 0,0 km/h (0 Bft) O 91 0 min 0,000 mm 0,0 UV-I 0 W/m 15,5 C 21,4 C 0,0 km/h (0 Bft)
05.06.2015 23:15 21,4 C 70 % 1015,9 hPa 0,0 l/m 0,0 km/h (0 Bft) O 91 0 min 0,000 mm 0,0 UV-I 0 W/m 15,7 C 21,4 C 0,0 km/h (0 Bft)
05.06.2015 23:20 21,3 C 70 % 1016,0 hPa 0,0 l/m 0,0 km/h (0 Bft) O 91 0 min 0,000 mm 0,0 UV-I 0 W/m 15,6 C 21,3 C 0,0 km/h (0 Bft)
05.06.2015 23:25 21,3 C 71 % 1016,0 hPa 0,0 l/m 0,0 km/h (0 Bft) O 91 0 min 0,000 mm 0,0 UV-I 0 W/m 15,8 C 21,3 C 0,0 km/h (0 Bft)
05.06.2015 23:30 21,2 C 70 % 1016,1 hPa 0,0 l/m 0,0 km/h (0 Bft) O 91 0 min 0,000 mm 0,0 UV-I 0 W/m 15,5 C 21,2 C 0,0 km/h (0 Bft)
05.06.2015 23:35 21,1 C 71 % 1016,1 hPa 0,0 l/m 0,0 km/h (0 Bft) O 91 0 min 0,000 mm 0,0 UV-I 0 W/m 15,6 C 21,1 C 0,0 km/h (0 Bft)
05.06.2015 23:40 20,9 C 72 % 1016,2 hPa 0,0 l/m 0,0 km/h (0 Bft) O 91 0 min 0,000 mm 0,0 UV-I 0 W/m 15,7 C 20,9 C 0,0 km/h (0 Bft)
05.06.2015 23:45 20,8 C 72 % 1016,3 hPa 0,0 l/m 0,0 km/h (0 Bft) O 91 0 min 0,000 mm 0,0 UV-I 0 W/m 15,6 C 20,8 C 0,0 km/h (0 Bft)
05.06.2015 23:50 20,7 C 73 % 1016,3 hPa 0,0 l/m 0,0 km/h (0 Bft) O 91 0 min 0,000 mm 0,0 UV-I 0 W/m 15,7 C 20,7 C 0,0 km/h (0 Bft)
05.06.2015 23:55 20,6 C 74 % 1016,4 hPa 0,0 l/m 0,0 km/h (0 Bft) O 91 0 min 0,000 mm 0,0 UV-I 0 W/m 15,8 C 20,6 C 0,0 km/h (0 Bft)
_ Min-Zeit 05:30 16:45 20:50 - 00:00 - - - - - - 05:35 05:35 00:00
Minimum _ 8,6 C 31 % 1015,5 hPa - 0,0 km/h (0 Bft) - - - - - - 6,7 C 8,6 C 0,0 km/h (0 Bft)
_ Max-Zeit 16:25 06:30 00:15 00:00 14:25 - - 06:40 14:05 12:50 13:35 21:00 16:25 16:15
Maximum _ 32,8 C 90 % 1023,1 hPa 0,0 l/m 10,1 km/h
SO (2 Bft)
- - 5 min 0,610 mm 6,5 UV-I 863 W/m 16,8 C 32,8 C 22,5 km/h
SO (4 Bft)
Durchschnitt _ 21,9 C 59 % 1019,5 hPa #0,0 l/m 1,7 km/h (1 Bft) O - #13:50 h #5,613 mm 3,6 UV-I 483 W/m 12,4 C 21,9 C 5,9 km/h (2 Bft)